Location: Schommer Observatory
(40.5200°N, 74.4500°W)
Time: 10:52:34
(UTC-05:00)

Envisat - Pass Details

Date: 15 November 2018
Orbit: 764 x 766 km, 98.2° (Epoch: 13 December)

Event Time Altitude Azimuth Distance (km) Brightness Sun altitude
Rises 18:48:42 0° 165° (SSE) 3,218 6.1 -24.4°
Enters shadow 18:49:58 - 165° (SSE) 2,708 5.7 -24.6°
Exits shadow 18:53:48 34° 165° (SSE) 1,241 3.9 -25.4°
Maximum altitude 18:56:04 89° 77° (ENE) 772 2.9 -25.8°
Drops below altitude 10° 19:01:11 10° 348° (NNW) 2,311 5.6 -26.8°
Sets 19:03:29 0° 348° (NNW) 3,242 6.4 -27.2°
